EW5461 Weather Reports


Display with metric or nautical units.
time (UTC)temp
F
wind
direction
speed
MPH
gust
MPH
rain 1hr
in
rain 24hr
in
rain mn
in
humidity
%
barometer
mb
20260508121536 60 168 0.0 3.0 0.02 0.02 0.02 88 1013.6
20260508120038 60 168 0.0 1.0 0.02 0.02 0.02 87 1013.4
20260508114536 61 168 0.0 3.0 0.02 0.02 0.02 85 1013.5
20260508113030 61 169 3.0 6.0 0.00 0.00 0.00 82 1014.1
20260508111530 61 163 2.0 6.0 0.00 0.00 0.00 82 1013.5
20260508110032 61 107 0.0 2.0 0.00 0.00 0.00 82 1013.3
20260508104530 61 107 0.0 2.0 0.00 0.00 0.00 81 1013.4
20260508103033 62 107 0.0 0.0 0.00 0.00 0.00 81 1013.3
20260508101526 62 107 0.0 2.0 0.00 0.00 0.00 80 1013.1
20260508100025 62 107 1.0 3.0 0.00 0.00 0.00 80 1013.5
20260508094525 62 107 0.0 0.0 0.00 0.00 0.00 80 1013.1
20260508093034 62 107 0.0 0.0 0.00 0.00 0.00 80 1013.0
20260508091531 62 107 0.0 0.0 0.00 0.00 0.00 81 1013.1
20260508090021 62 107 0.0 0.0 0.00 0.00 0.00 81 1013.1
20260508084520 62 107 0.0 0.0 0.00 0.00 0.00 80 1013.3
20260508083018 62 107 0.0 0.0 0.00 0.00 0.00 79 1013.2
20260508081517 62 107 0.0 0.0 0.00 0.00 0.00 79 1013.3
20260508080016 62 107 0.0 0.0 0.00 0.00 0.00 79 1013.9
20260508074520 62 107 0.0 2.0 0.00 0.00 0.00 80 1013.4
20260508073014 62 162 0.0 1.0 0.00 0.00 0.00 81 1013.7
20260508071610 62 162 0.0 5.0 0.00 0.00 0.00 81 1014.5
20260508070006 62 162 0.0 3.0 0.00 0.00 0.00 80 1014.7
20260508064503 62 162 0.0 2.0 0.00 0.00 0.00 78 1014.5
20260508063107 62 162 0.0 1.0 0.00 0.00 0.00 77 1014.2
20260508061558 62 162 0.0 1.0 0.00 0.00 0.00 78 1014.4
20260508060058 62 162 0.0 2.0 0.00 0.00 0.00 78 1014.7
20260508054556 62 162 0.0 2.0 0.00 0.00 0.00 76 1014.7
20260508053104 62 162 0.0 2.0 0.00 0.00 0.00 74 1015.1
20260508051550 62 162 0.0 1.0 0.00 0.00 0.00 73 1014.8
20260508050049 62 162 0.0 0.0 0.00 0.00 0.00 73 1014.8
20260508044548 62 162 0.0 0.0 0.00 0.00 0.00 73 1015.0
20260508043057 62 162 0.0 0.0 0.00 0.00 0.00 73 1014.9
20260508041552 62 162 0.0 0.0 0.00 0.00 0.00 73 1014.8
20260508040046 62 162 0.0 0.0 0.00 0.00 0.00 72 1014.6
20260508034546 63 162 0.0 0.0 0.00 0.00 0.00 71 1014.6
20260508033045 63 162 0.0 0.0 0.00 0.00 0.00 71 1014.4
20260508031544 63 162 0.0 0.0 0.00 0.00 0.00 70 1014.5
20260508030046 63 162 0.0 0.0 0.00 0.00 0.00 70 1014.3
20260508024547 63 162 0.0 0.0 0.00 0.00 0.00 70 1014.2
20260508023043 64 162 0.0 0.0 0.00 0.00 0.00 69 1013.9
20260508021549 64 162 0.0 1.0 0.00 0.00 0.00 70 1013.8
20260508020048 65 162 0.0 2.0 0.00 0.00 0.00 70 1013.8
20260508014542 65 162 2.0 5.0 0.00 0.00 0.00 68 1013.8
20260508013052 66 162 1.0 5.0 0.00 0.00 0.00 67 1013.7
20260508011544 67 171 3.0 6.0 0.00 0.00 0.00 65 1013.7
20260508010040 67 171 1.0 7.0 0.00 0.00 0.00 64 1013.6
20260508004540 67 177 1.0 8.0 0.00 0.00 0.00 64 1013.8
20260508003039 68 158 3.0 7.0 0.00 0.00 0.00 62 1013.5
20260508001604 70 196 3.0 8.0 0.00 0.00 0.00 58 1013.9
20260508000036 70 178 0.0 7.0 0.00 0.00 0.00 59 1013.8
20260507234536 70 166 2.0 7.0 0.00 0.00 0.00 56 1014.1
20260507233034 70 148 3.0 7.0 0.00 0.00 0.00 54 1013.9
20260507231536 70 159 4.0 7.0 0.00 0.00 0.00 55 1014.0
20260507230030 71 173 1.0 5.0 0.00 0.00 0.00 57 1014.2
20260507224540 71 84 2.0 7.0 0.00 0.00 0.00 55 1014.3
20260507223028 70 171 4.0 9.0 0.00 0.00 0.00 55 1014.3
20260507221527 70 169 2.0 8.0 0.00 0.00 0.00 55 1014.4
20260507220038 71 119 3.0 7.0 0.00 0.00 0.00 55 1014.5
20260507214533 72 198 2.0 5.0 0.00 0.00 0.00 54 1014.5
20260507213022 72 27 0.0 1.0 0.00 0.00 0.00 52 1014.7
20260507211521 72 5 0.0 4.0 0.00 0.00 0.00 52 1015.0
20260507210020 72 15 1.0 3.0 0.00 0.00 0.00 53 1015.3
20260507204519 73 15 0.0 5.0 0.00 0.00 0.00 51 1015.3
20260507203017 73 117 1.0 5.0 0.00 0.00 0.00 50 1015.1
20260507201516 73 102 1.0 5.0 0.00 0.00 0.00 51 1015.2
20260507200017 74 30 4.0 7.0 0.00 0.00 0.00 49 1015.6
20260507194510 73 55 1.0 5.0 0.00 0.00 0.00 56 1015.9
20260507193008 72 134 1.0 10.0 0.00 0.00 0.00 55 1016.1
20260507191505 72 103 1.0 4.0 0.00 0.00 0.00 53 1016.4
20260507190004 71 11 5.0 10.0 0.00 0.00 0.00 54 1016.5
20260507184504 69 26 4.0 12.0 0.00 0.00 0.00 56 1016.7
20260507183058 69 14 6.0 12.0 0.00 0.00 0.00 56 1016.7
20260507181604 69 360 4.0 10.0 0.00 0.00 0.00 54 1016.9
20260507180057 69 85 4.0 12.0 0.00 0.00 0.00 58 1017.1
20260507174601 67 121 3.0 11.0 0.00 0.00 0.00 58 1017.3
20260507173052 67 98 4.0 10.0 0.00 0.00 0.00 55 1017.5
20260507171556 67 355 7.0 13.0 0.00 0.00 0.00 60 1018.1
20260507170051 65 15 2.0 9.0 0.00 0.00 0.00 58 1018.6
20260507164546 65 167 0.0 8.0 0.00 0.00 0.00 62 1018.9
20260507163042 64 5 1.0 6.0 0.00 0.00 0.00 63 1019.0
20260507161540 63 11 4.0 12.0 0.00 0.00 0.00 64 1019.1
20260507160038 64 42 4.0 10.0 0.00 0.00 0.00 64 1018.9
20260507154536 63 93 2.0 10.0 0.00 0.02 0.00 67 1019.0
20260507153033 62 333 7.0 11.0 0.00 0.02 0.00 65 1019.2
20260507151532 62 355 5.0 11.0 0.00 0.02 0.00 69 1019.4
20260507150034 61 42 2.0 8.0 0.00 0.02 0.00 73 1019.5
20260507144527 60 355 6.0 10.0 0.00 0.04 0.00 72 1019.6
20260507143026 59 350 3.0 6.0 0.00 0.04 0.00 78 1019.5
20260507141519 57 319 1.0 6.0 0.00 0.04 0.00 82 1019.7
20260507140018 56 346 4.0 8.0 0.00 0.04 0.00 83 1019.7
20260507134518 55 14 0.0 2.0 0.00 0.04 0.00 86 1019.9
20260507133017 54 14 1.0 3.0 0.00 0.04 0.00 86 1020.0
20260507131523 53 14 1.0 4.0 0.00 0.04 0.00 88 1019.9
20260507130017 53 14 0.0 3.0 0.00 0.04 0.00 89 1019.9
20260507124514 52 14 0.0 0.0 0.00 0.04 0.00 90 1019.7
20260507123013 51 14 0.0 0.0 0.00 0.04 0.00 90 1019.6